OpenBCM V1.07b12 (Linux)

Packet Radio Mailbox

DB0FHN

[JN59NK Nuernberg]

 Login: GUEST





  
S57NML > KEPLER   04.05.03 19:38l 9 Lines 300 Bytes #999 (0) @ EU
BID : R43S50BOX017
Read: DB0FHN GUEST
Subj: Soyuz TMA.-2 #3116
Path: DB0FHN<DB0ZWI<DB0HDF<DB0ERF<DB0MRW<OK0PPL<OK0PAD<OK0PCC<OK0NAG<9A0BBS<
      S50BOX
Sent: 030427/1421z @:S50BOX.SVN.EU [Ljubljana ] bcm1.42
From: S57NML @ S50BOX.SVN.EU  (Andrej)
To:   KEPLER @ EU
X-Info: Received from 194.249.12.141 by HTTP-frontend

SOYUZ-TMA 2             
1 27781U 03016A   03116.66975532  .00278971  39147-4  75256-3 0    68
2 27781  51.6368 279.4100 0077724 149.8582 299.9140 15.88635642    72


73 de Andrej S57NML 


Read previous mail | Read next mail


 18.09.2025 22:23:14lGo back Go up